Regional Weather Roundup
Issued by NWS Charleston, SC

Current Version | Previous Version | Graphics & Text | Print | Product List | Glossary On
Versions: 1 2 3 4 5 6 7 8 9 10 11 12 13 14 15 16 17 18 19 20 21 22 23 24 25 26 27 28 29 30 31 32 33 34 35 36 37 38 39 40 41 42 43 44 45 46 47 48 49 50
000 ASUS42 KCHS 311127 RWRCHS REGIONAL WEATHER ROUNDUP NATIONAL WEATHER SERVICE CHARLESTON SC 700 AM EDT MON AUG 31 2015 NOTE: "FAIR" INDICATES FEW OR NO CLOUDS BELOW 12,000 FEET WITH NO SIGNIFICANT WEATHER AND/OR OBSTRUCTIONS TO VISIBILITY. NOT ALL STATIONS ARE QUALITY CONTROLLED BY THE NATIONAL WEATHER SERVICE. USE DATA WITH CAUTION...ESPECIALLY DEWPOINT OBSERVATIONS. SCZ027-030-031-034>040-042>050-311200- ...SOUTHEAST SOUTH CAROLINA... CITY SKY/WX TMP DP RH WIND PRES REMARKS N CHARLESTON HVY RAIN 75 73 93 SE7 30.02S FOG WATERFRONT PRK N/A 79 76 91 S17 29.98R MOUNT PLEASANT HVY RAIN 77 75 94 S7 30.03R VSB 1/2 JOHNS ISLAND CLOUDY 75 73 94 S16G31 30.02R FOG PINOPOLIS N/A 77 73 88 NE7 29.97 MONCKS CORNER RAIN 75 72 88 CALM 30.02F SUMMERVILLE FAIR 72 72 100 CALM 30.03F BEAUFORT MCAS CLOUDY 75 73 93 N5 30.00S BEAUFORT ARPT FAIR 73 73 100 CALM 30.00R HILTON HEAD IS MOCLDY 73 72 94 N7 30.01F WALTERBORO PTSUNNY 73 72 94 CALM 30.04R ALLENDALE FOG 73 72 94 N5 30.02F VSB 1/2 ...SOUTHERN MIDLANDS AND PEE DEE... CITY SKY/WX TMP DP RH WIND PRES REMARKS GEORGETOWN NOT AVBL KINGSTREE NOT AVBL ORANGEBURG CLOUDY 72 69 90 NE8 30.05S BARNWELL CLOUDY 72 72 100 N6 30.05F FOG AIKEN CLOUDY 57 55 94 N5 30.11R MANNING CLOUDY 70 70 100 N7 30.05S COLUMBIA CLOUDY 70 67 90 NW5 30.07R SUMTER CLOUDY 70 66 88 E5 30.05S FLORENCE LGT RAIN 70 69 97 E5 30.08R MYRTLE BEACH TSTM 75 70 83 SW9 30.08S N MYRTLE BEACH RAIN 77 74 90 SE7 30.04F $$ GAZ063-065-086>088-099>101-113>116-118-119-134>141-150-311200- ...SOUTHEAST GEORGIA... CITY SKY/WX TMP DP RH WIND PRES REMARKS SAVANNAH ARPT FOG 74 72 93 N6 30.00F VSB 1/2 HUNTER AAF CLOUDY 73 73 100 CALM 29.98R FORT STEWART CLOUDY 74 73 95 NW1 29.99S STATESBORO CLOUDY 72 32 23 N8 30.03S FOG SYLVANIA CLOUDY 73 73 100 N6 30.04F FOG CLAXTON NOT AVBL ...CSRA...CENTRAL AND FAR SOUTHEAST GEORGIA... CITY SKY/WX TMP DP RH WIND PRES REMARKS THOMSON CLOUDY 70 70 100 CALM 30.13R VSB 1 AUGUSTA-BUSH CLOUDY 69 69 100 N5 30.06R FOG AUGUSTA-DANIEL CLOUDY 71 68 90 N6 30.08R FOG SWAINSBORO CLOUDY N/A N/A N/A N6 30.06S FOG VIDALIA CLOUDY 73 72 94 N6 30.04S FOG EASTMAN CLOUDY 72 72 100 N3 30.08S HAZLEHURST CLOUDY 75 75 100 N6 30.02S FOG ALMA CLOUDY 75 74 96 CALM 30.02S WAYCROSS CLOUDY 77 77 100 N5 30.02S FOG JESUP CLOUDY 77 77 100 CALM 30.01F FOG BAXLEY CLOUDY 77 73 88 NE3 30.02S BRUNSWICK CLOUDY 72 72 100 CALM 30.02R VSB 1 SAINT SIMONS CLOUDY 75 75 100 CALM 30.00R $$ SCZ027-028-034-036>038-045-046-048>050-GAZ119-141-311200- ...LAKE AND SUPPLEMENTAL COASTAL OBSERVATIONS... STATION/POSITION TIME TEMP WIND PRES WAVE SWELL AIR SEA DIR/SP/G HT/PER HT/PER/DIR (UTC) (F) (DEG/KT/KT) (MB) (FT/S) (FT/S/D) UPR LAKE MARION NOT AVBL WINYAH BAY 1000 76 260/ 3 1016.0 LAKE MURRAY 1000 68 340/ 3/ 6 1017.9R ACE BASIN NERRS NOT AVBL FORT PULASKI NOT AVBL SAPELO ISLAND 1100 75 290/ 3 1016.0R $$ ANZ835-935-AMZ111-154-330-350-352-354-370-450-454-472-311200- ...C-MAN AND BUOY OBSERVATIONS... STATION/POSITION TIME TEMP WIND PRES WAVE SWELL AIR SEA DIR/SP/G HT/PER HT/PER/DIR (UTC) (F) (DEG/KT/KT) (MB) (FT/S) (FT/S/D) BUOY 41004 1050 82 84 160/ 19/ 23 1015.6F 6/ 9 3/ 9 BUOY 41008 1050 78 84 260/ 6/ 10 1015.7R 5/ 9 5/100/ 9 FOLLY BEACH CMAN 1100 80 170/ 22/ 25 1016.5R CAPERS NEARSHORE 1008 81 160/ 17/ 25 1016.5F FRIPP NEARSHORE NOT AVBL STATION/POSITION TIME TEMP WIND PRES WAVE SWELL AIR SEA DIR/SP/G HT/PER HT/PER/DIR (UTC) (F) (DEG/KT/KT) (MB) (FT/S) (FT/S/D) 5E ST. MARYS GA 1021 85 N/A 5/ 9 FRYING PAN BUOY 1050 83 82 180/ 16/ 17 1017.7F 3/10 3/140/10 BUOY 41025 1050 81 83 CALM / 2 1020.1R 3/ 9 3/110/ 9 CAPE LOOKOUT NC 1100 80 90/ 10/ 12 1018.9F BUOY 41002 1050 83 84 150/ 8/ 10 1019.6S 3/ 8 3/160/ 8 BUOY 41010 1020 82 85 140/ 12/ 16 1016.9R ST AUGUSTINE FL 1100 76 83 260/ 4/ 5 1017.0R $$

USA.gov is the U.S. government's official web portal to all federal, state and local government web resources and services.